Tracy, MN

6:27 AM CST on January 19, 2018 (GMT -0600)
Tracy

Weather History for KTKC - February, 2013

Change the Weather History Date:

Wednesday, February 13, 2013

  Actual Average (KMML) Record (KMML)
Temperature  
Mean Temperature 28 °F -  
Max Temperature 35 °F 28 °F 50 °F (2017)
Min Temperature 21 °F 8 °F -16 °F (1970)
Degree Days  
Heating Degree Days 37    
Moisture  
Dew Point 25 °F    
Average Humidity 79    
Maximum Humidity 92    
Minimum Humidity 69    
Precipitation  
Precipitation 0.29 in - - ()
Sea Level Pressure  
Sea Level Pressure 29.68 in    
Wind  
Wind Speed 9 mph (WSW)    
Max Wind Speed 26 mph    
Max Gust Speed 32 mph    
Visibility 10 miles    
Events Snow    
Averages and records for this station are not official NWS values.
T = Trace of Precipitation, MM = Missing Value Source: NWS Daily Summary

Daily Weather History Graph

Daily Weather History Graph

Search for Another Location

Airport or City:

Trip Planner

Search our weather history database for the weather conditions in past years. The results will help you decide how hot, cold, wet, or windy it might be!

Date:

Astronomy

Feb. 13, 2013 Rise Set
Actual Time 7:24 AM CST 5:49 PM CST
Civil Twilight 6:54 AM CST 6:19 PM CST
Nautical Twilight 6:20 AM CST 6:53 PM CST
Astronomical Twilight 5:47 AM CST 7:26 PM CST
Moon 8:44 AM CST (2/13) 10:04 PM CST (2/13)
Length of Visible Light 11h 24m
Length of Day
10h 24m
Waxing Crescent, 14% of the Moon is Illuminated
Feb 13
Waxing Crescent
Feb 17
First Quarter
Feb 25
Full
Mar 4
Last Quarter
Mar 11
New

Hourly Weather History & Observations

Time (CST) Temp. Windchill Dew Point Humidity Pressure Visibility Wind Dir Wind Speed Gust Speed Precip Events Conditions
12:18 AM 21.7 °F 11.5 °F 17.6 °F 84% 29.82 in 10.0 mi West 9.2 mph - N/A   Clear
12:38 AM 21.7 °F 12.3 °F 17.6 °F 84% 29.82 in 10.0 mi West 8.1 mph - N/A   Mostly Cloudy
12:57 AM 22.1 °F 17.4 °F 18.1 °F 85% 29.81 in 10.0 mi West 3.5 mph - N/A   Overcast
1:17 AM 23.0 °F 15.8 °F 18.9 °F 84% 29.81 in 10.0 mi West 5.8 mph - N/A   Overcast
1:38 AM 24.1 °F 16.0 °F 19.6 °F 83% 29.79 in 10.0 mi West 6.9 mph - N/A   Overcast
1:58 AM 24.8 °F - 20.3 °F 83% 29.79 in 10.0 mi Calm Calm - N/A   Overcast
2:18 AM 25.5 °F - 20.8 °F 82% 29.79 in 10.0 mi Calm Calm - N/A   Overcast
2:38 AM 25.9 °F - 21.4 °F 83% 29.79 in 10.0 mi Calm Calm - N/A   Overcast
2:58 AM 26.6 °F - 22.1 °F 83% 29.79 in 10.0 mi Calm Calm - N/A   Overcast
3:17 AM 27.5 °F 22.2 °F 22.5 °F 81% 29.78 in 10.0 mi West 4.6 mph - N/A   Overcast
3:38 AM 27.1 °F - 22.5 °F 83% 29.78 in 10.0 mi Calm Calm - N/A   Overcast
3:57 AM 27.5 °F - 22.6 °F 82% 29.77 in 10.0 mi Calm Calm - N/A   Overcast
4:18 AM 27.7 °F - 22.8 °F 82% 29.77 in 10.0 mi Calm Calm - N/A   Overcast
4:38 AM 27.5 °F - 22.6 °F 82% 29.76 in 10.0 mi Calm Calm - N/A   Overcast
4:57 AM 27.5 °F 23.6 °F 22.6 °F 82% 29.76 in 10.0 mi West 3.5 mph - N/A   Overcast
5:18 AM 28.2 °F - 22.5 °F 79% 29.75 in 10.0 mi Calm Calm - N/A   Overcast
5:38 AM 28.0 °F - 21.9 °F 78% 29.76 in 10.0 mi Calm Calm - N/A   Scattered Clouds
5:57 AM 26.1 °F 16.8 °F 20.8 °F 81% 29.75 in 10.0 mi WSW 9.2 mph - N/A   Scattered Clouds
6:17 AM 25.7 °F 16.4 °F 21.0 °F 82% 29.75 in 10.0 mi WSW 9.2 mph - N/A   Clear
6:37 AM 25.9 °F 18.2 °F 20.7 °F 81% 29.74 in 10.0 mi SW 6.9 mph - N/A   Clear
6:58 AM 23.9 °F 15.8 °F 19.4 °F 83% 29.74 in 10.0 mi SW 6.9 mph - N/A   Clear
7:18 AM 22.6 °F 11.9 °F 18.5 °F 84% 29.73 in 10.0 mi SW 10.4 mph - N/A   Clear
7:37 AM 23.0 °F 12.4 °F 18.7 °F 84% 29.74 in 10.0 mi WSW 10.4 mph - N/A   Clear
7:58 AM 24.6 °F 13.8 °F 19.9 °F 82% 29.73 in 10.0 mi SW 11.5 mph - N/A   Mostly Cloudy
8:17 AM 25.7 °F 15.7 °F 20.7 °F 81% 29.72 in 10.0 mi SW 10.4 mph - N/A   Mostly Cloudy
8:38 AM 30.0 °F 20.5 °F 23.0 °F 75% 29.72 in 10.0 mi WSW 11.5 mph - N/A   Scattered Clouds
8:58 AM 29.1 °F 18.9 °F 22.1 °F 75% 29.72 in 10.0 mi SW 12.7 mph - N/A   Clear
9:17 AM 29.8 °F 20.3 °F 22.3 °F 73% 29.70 in 10.0 mi SW 11.5 mph - N/A   Clear
9:38 AM 30.9 °F 20.7 °F 22.6 °F 71% 29.69 in 10.0 mi SW 13.8 mph - N/A   Clear
9:58 AM 32.0 °F 22.5 °F 23.5 °F 71% 29.69 in 10.0 mi SW 12.7 mph - N/A   Clear
10:18 AM 32.9 °F 24.1 °F 24.4 °F 71% 29.69 in 10.0 mi SW 11.5 mph - N/A   Clear
10:37 AM 33.8 °F 24.3 °F 24.8 °F 70% 29.69 in 10.0 mi SW 13.8 mph - N/A   Clear
10:57 AM 34.5 °F 26.2 °F 25.5 °F 70% 29.69 in 10.0 mi SW 11.5 mph - N/A   Clear
11:18 AM 34.7 °F 25.9 °F 25.9 °F 70% 29.69 in 10.0 mi WSW 12.7 mph - N/A   Clear
11:38 AM 34.7 °F 25.5 °F 26.1 °F 71% 29.69 in 10.0 mi SW 13.8 mph - N/A   Clear
11:58 AM 35.6 °F 26.6 °F 26.4 °F 69% 29.68 in 10.0 mi WSW 13.8 mph - N/A   Mostly Cloudy
12:18 PM 34.7 °F 25.1 °F 26.4 °F 72% 29.66 in 10.0 mi SW 15.0 mph - 0.01 in   Overcast
12:38 PM 33.8 °F 24.8 °F 26.2 °F 74% 29.65 in 10.0 mi SW 12.7 mph 19.6 mph 0.03 in   Scattered Clouds
12:57 PM 34.7 °F 25.5 °F 26.6 °F 72% 29.64 in 10.0 mi SW 13.8 mph - 0.06 in   Scattered Clouds
1:18 PM 34.3 °F 24.6 °F 26.6 °F 73% 29.63 in 10.0 mi SW 15.0 mph - 0.03 in   Mostly Cloudy
1:38 PM 33.8 °F 23.9 °F 27.1 °F 77% 29.63 in 10.0 mi WSW 15.0 mph - 0.05 in   Mostly Cloudy
1:57 PM 33.8 °F 24.3 °F 27.1 °F 77% 29.63 in 10.0 mi SW 13.8 mph - 0.06 in   Overcast
2:17 PM 33.8 °F 24.3 °F 26.8 °F 75% 29.62 in 10.0 mi SW 13.8 mph - 0.01 in   Overcast
2:38 PM 34.0 °F 24.2 °F 27.1 °F 76% 29.60 in 10.0 mi SW 15.0 mph - 0.04 in   Overcast
2:57 PM 34.2 °F 25.2 °F 27.3 °F 76% 29.60 in 10.0 mi SW 12.7 mph - 0.05 in   Overcast
3:18 PM 34.7 °F 24.7 °F 27.5 °F 75% 29.60 in 10.0 mi SW 16.1 mph - 0.02 in   Overcast
3:37 PM 34.7 °F 25.5 °F 28.0 °F 77% 29.59 in 10.0 mi SW 13.8 mph - 0.04 in   Overcast
3:57 PM 35.1 °F 25.5 °F 27.9 °F 75% 29.59 in 10.0 mi SW 15.0 mph - 0.05 in   Overcast
4:18 PM 34.9 °F 24.9 °F 28.2 °F 77% 29.59 in 10.0 mi SW 16.1 mph - 0.01 in   Overcast
4:37 PM 35.1 °F 26.9 °F 28.4 °F 77% 29.60 in 10.0 mi WSW 11.5 mph 18.4 mph 0.03 in   Overcast
4:58 PM 35.1 °F 26.4 °F 28.4 °F 77% 29.59 in 10.0 mi WSW 12.7 mph 18.4 mph 0.05 in   Overcast
5:17 PM 35.2 °F 26.2 °F 28.2 °F 76% 29.59 in 10.0 mi WSW 13.8 mph 18.4 mph 0.01 in   Overcast
5:38 PM 35.2 °F 26.2 °F 28.4 °F 76% 29.58 in 10.0 mi WSW 13.8 mph - 0.02 in   Overcast
5:58 PM 35.2 °F 26.6 °F 28.4 °F 76% 29.57 in 10.0 mi WSW 12.7 mph 17.3 mph 0.02 in   Overcast
6:17 PM 35.4 °F 26.4 °F 28.8 °F 77% 29.57 in 10.0 mi WSW 13.8 mph 18.4 mph N/A   Overcast
6:37 PM 35.6 °F 28.0 °F 28.9 °F 77% 29.58 in 10.0 mi WSW 10.4 mph 18.4 mph N/A   Overcast
6:57 PM 35.2 °F 28.1 °F 29.3 °F 79% 29.58 in 10.0 mi West 9.2 mph - N/A   Overcast
7:18 PM 35.2 °F - 29.3 °F 79% 29.59 in 10.0 mi Calm Calm - N/A   Overcast
7:38 PM 34.7 °F - 29.3 °F 81% 29.59 in 10.0 mi Calm Calm - N/A   Overcast
7:58 PM 34.7 °F 28.1 °F 29.3 °F 81% 29.60 in 10.0 mi West 8.1 mph - N/A   Overcast
8:17 PM 34.9 °F 27.7 °F 29.7 °F 81% 29.60 in 10.0 mi West 9.2 mph - N/A   Overcast
8:37 PM 35.6 °F 27.1 °F 30.0 °F 80% 29.60 in 10.0 mi WNW 12.7 mph 17.3 mph N/A   Overcast
8:57 PM 35.8 °F 25.1 °F 30.2 °F 80% 29.60 in 10.0 mi WNW 19.6 mph 25.3 mph N/A   Overcast
9:18 PM 35.6 °F 27.5 °F 30.6 °F 82% 29.60 in 10.0 mi WNW 11.5 mph 20.7 mph N/A   Overcast
9:37 PM 35.6 °F 26.2 °F 30.2 °F 81% 29.60 in 10.0 mi WNW 15.0 mph 21.9 mph N/A   Overcast
9:58 PM 34.3 °F 21.5 °F 29.7 °F 83% 29.61 in 10.0 mi NW 26.5 mph 32.2 mph N/A   Overcast
10:18 PM 32.0 °F 18.9 °F 29.8 °F 92% 29.62 in 10.0 mi NW 24.2 mph 32.2 mph N/A   Overcast
10:37 PM 31.6 °F 18.7 °F 28.9 °F 90% 29.63 in 10.0 mi NW 23.0 mph 31.1 mph N/A   Overcast
10:57 PM 31.1 °F 19.3 °F 28.2 °F 89% 29.64 in 10.0 mi NW 18.4 mph 29.9 mph N/A   Overcast
11:18 PM 30.7 °F 18.5 °F 28.0 °F 90% 29.65 in 10.0 mi NW 19.6 mph 27.6 mph N/A   Overcast
11:37 PM 30.2 °F 17.4 °F 27.9 °F 91% 29.66 in 7.0 mi NW 20.7 mph - N/A Snow Light Snow
11:57 PM 29.8 °F 17.3 °F 27.3 °F 90% 29.67 in 10.0 mi NW 19.6 mph 27.6 mph N/A   Overcast